Time,TemperatureF,DewpointF,PressureIn,WindDirection,WindDirectionDegrees,WindSpeedMPH,WindSpeedGustMPH,Humidity,HourlyPrecipIn,Conditions,Clouds,dailyrainin,SolarRadiationWatts/m^2,SoftwareType,DateUTC
2013-05-08 00:11:00,66.0,50.0,-100.00,West,280,6.0,15.0,55,-99.99,,,0.00,0.120000,,2013-05-08 07:11:00,
2013-05-08 01:11:00,64.0,50.0,-100.00,WNW,294,7.0,17.0,60,-99.99,,,0.00,0.120000,,2013-05-08 08:11:00,
2013-05-08 02:11:00,63.0,50.0,-100.00,WNW,301,7.0,19.0,62,-99.99,,,0.00,0.120000,,2013-05-08 09:11:00,
2013-05-08 03:12:00,61.0,49.0,-100.00,WNW,303,9.0,24.0,66,-99.99,,,0.00,0.120000,,2013-05-08 10:12:00,
2013-05-08 04:11:00,59.0,49.0,-100.00,WNW,300,9.0,22.0,67,-99.99,,,0.00,0.000000,,2013-05-08 11:11:00,
2013-05-08 05:11:00,59.0,48.0,-100.00,WNW,300,8.0,16.0,67,-99.99,,,0.00,0.000000,,2013-05-08 12:11:00,
2013-05-08 06:11:00,59.0,48.0,-100.00,WNW,291,8.0,21.0,66,-99.99,,,0.00,0.120000,,2013-05-08 13:11:00,
2013-05-08 07:11:00,58.0,48.0,-100.00,WNW,289,8.0,20.0,67,-99.99,,,0.00,19.520000,,2013-05-08 14:11:00,
2013-05-08 08:11:00,59.0,48.0,-100.00,WNW,297,5.0,13.0,66,-99.99,,,0.00,187.580002,,2013-05-08 15:11:00,
2013-05-08 09:12:00,61.0,49.0,-100.00,WNW,296,6.0,15.0,63,-99.99,,,-99.99,240.690002,,2013-05-08 16:12:00,
2013-05-08 10:12:00,62.0,49.0,-100.00,WNW,296,6.0,21.0,62,-99.99,,,-99.99,538.909973,,2013-05-08 17:12:00,
2013-05-08 12:11:00,66.0,49.0,-100.00,WNW,296,8.0,18.0,54,-99.99,,,0.00,818.190002,,2013-05-08 19:11:00,
2013-05-08 13:11:00,69.0,50.0,-100.00,WNW,294,8.0,20.0,50,-99.99,,,0.00,893.729980,,2013-05-08 20:11:00,
2013-05-08 14:11:00,70.0,50.0,-100.00,WNW,298,8.0,18.0,48,-99.99,,,0.00,915.809998,,2013-05-08 21:11:00,
2013-05-08 15:12:00,71.0,50.0,-100.00,WNW,296,8.0,20.0,47,-99.99,,,0.00,886.760010,,2013-05-08 22:12:00,
2013-05-08 16:11:00,72.0,50.0,-100.00,WNW,297,9.0,20.0,45,-99.99,,,0.00,801.570007,,2013-05-08 23:11:00,
2013-05-08 17:11:00,72.0,50.0,-100.00,WNW,295,7.0,20.0,45,-99.99,,,0.00,673.729980,,2013-05-09 00:11:00,
2013-05-08 18:11:00,71.0,50.0,-100.00,WNW,292,7.0,17.0,46,-99.99,,,0.00,513.229980,,2013-05-09 01:11:00,
2013-05-08 19:11:00,70.0,50.0,-100.00,WNW,288,5.0,16.0,49,-99.99,,,0.00,331.809998,,2013-05-09 02:11:00,
2013-05-08 20:11:00,68.0,51.0,-100.00,West,275,5.0,13.0,53,-99.99,,,0.00,152.600006,,2013-05-09 03:11:00,
2013-05-08 21:12:00,66.0,51.0,-100.00,WNW,287,5.0,13.0,58,-99.99,,,0.00,11.390000,,2013-05-09 04:12:00,
2013-05-08 22:12:00,65.0,51.0,-100.00,WNW,296,9.0,22.0,59,-99.99,,,0.00,0.120000,,2013-05-09 05:12:00,
2013-05-08 23:11:00,63.0,51.0,-100.00,WNW,287,8.0,18.0,63,-99.99,,,0.00,0.120000,,2013-05-09 06:11:00,